Regional Weather Roundup
Issued by NWS

Home | Current Version | Previous Version | Text Only | Print | Product List | Glossary Off
Versions: 1 2 3 4 5 6 7 8 9 10 11 12 13 14 15 16 17 18 19 20 21 22 23 24 25 26 27 28 29 30 31 32 33 34 35 36 37 38 39 40 41 42 43 44 45 46 47 48 49 50

000
ASUS45 KBOU 222107
RWRCO

WEATHER ROUNDUP FOR COLORADO
NATIONAL WEATHER SERVICE DENVER/BOULDER CO
300 PM MDT WED MAR 22 2017

NOTE: "FAIR" INDICATES FEW OR NO CLOUDS BELOW 12000 FEET WITH NO
SIGNIFICANT WEATHER AND/OR OBSTRUCTIONS TO VISIBILITY.

COZ001>005-013-030-031-222200-
...NORTHWEST COLORADO...

CITY           SKY/WX    TMP DP  RH WIND       PRES   REMARKS
CRAIG          FAIR      68  19  15 S20G31    29.92F
HAYDEN         FAIR      64  19  17 SW17G30   29.95F
MEEKER         PTSUNNY   66  21  18 S16G23    29.94F
MOUNT WERNER   NOT AVBL
STEAMBOAT SPGS PTSUNNY   59  24  26 SW8       29.98F
WALDEN         NOT AVBL
$$

COZ006>008-011-222200-
...WEST CENTRAL VALLEYS...

CITY           SKY/WX    TMP DP  RH WIND       PRES   REMARKS
GRAND JUNCTION FAIR      72  22  15 S13       29.87F
MONTROSE       PTSUNNY   66  21  18 VRB3      29.95F
EAGLE          SUNNY     63  23  22 SW25      30.04S
RIFLE          FAIR      67  22  18 SW18G25   29.94F
DELTA          CLOUDY    71  23  17 E9G17     29.92F
NUCLA          FAIR      68  19  15 SW15G24   29.98F
$$

COZ017>023-064>068-222200-
...SOUTHWEST COLORADO...

CITY           SKY/WX    TMP DP  RH WIND       PRES   REMARKS
DURANGO        FAIR      64  17  16 SW8       30.04F
CORTEZ         FAIR      68  22  17 S9        29.99F
PAGOSA SPRINGS PTSUNNY   57  25  29 N3        30.12F
TELLURIDE      FAIR      55  22  28 SE10G17   30.13F
WOLF CREEK PAS CLOUDY    34  23  64 SW13G18   30.35S WCI  25
$$

COZ009-010-012-014-032>034-037-058>063-222200-
...CENTRAL COLORADO...

CITY           SKY/WX    TMP DP  RH WIND       PRES   REMARKS
ASPEN          FAIR      56  22  26 SW13G24   30.07F
BUENA VISTA    FAIR      65  11  12 S18G29    30.04F
COPPER MTN     NOT AVBL
BERTHOUD PASS  FAIR      37  28  70 W28G48    30.23F
COTTONWOOD PAS PTSUNNY   59   7  12 SW16G30   30.14F
GUNNISON       FAIR      53  32  44 N7        30.07F
KREMMLING      FAIR      66  12  12 W20G31    30.04S
LEADVILLE      PTSUNNY   49  14  24 W9        30.13F
MONARCH PASS   CLOUDY    41  16  36 W22G28    30.36F
SALIDA         FAIR      67  14  12 W12       30.09F
SUNLIGHT       CLOUDY    37  21  52 SW7G23    30.22S
WILKERSON PASS FAIR      52  12  20 SW10G25   30.23S
$$

COZ069>075-222200-
...SAN LUIS VALLEY/SANGRE DE CRISTO MOUNTAINS...

CITY           SKY/WX    TMP DP  RH WIND       PRES   REMARKS
ALAMOSA        FAIR      70  10  10 SW20G28   30.04F
LA VETA PASS   NOT AVBL
SAGUACHE       FAIR      66  12  12 W16G33    30.04F
$$

COZ035-036-038>040-222200-
...NORTHERN COLORADO FRONT RANGE...

CITY           SKY/WX    TMP DP  RH WIND       PRES   REMARKS
DENVER INTL AP PTSUNNY   70  35  27 N13       29.86F
DMNS CITY PARK   N/A     65  32  30 N12G18    29.86F
AURORA         PTSUNNY   74  34  23 N16       29.87F
FRONT RANGE AP PTSUNNY   75  34  22 N16G23    29.87F
ERIE MUNI ARPT FAIR      65  31  27 CALM      29.88F
BOULDER MUN AP FAIR      64  32  29 CALM      29.87F
CENTENNIAL     PTSUNNY   73  31  21 N14       29.87F
BROOMFIELD     PTSUNNY   63  32  31 N6        29.90F
FORT COLLINS   FAIR      64  35  34 CALM      29.88F
LONGMONT       FAIR      71  33  25 E6        29.88F
$$

COZ041-046-047-076>085-087-088-222200-
...PIKES PEAK/PALMER DIVIDE AND SOUTHERN FOOTHILLS...

CITY           SKY/WX    TMP DP  RH WIND       PRES   REMARKS
COLO. SPRINGS  PTSUNNY   60  31  33 SE9       29.97F
A. F. ACADEMY  FAIR      58  30  34 S14       29.97F
SCHRIEVER AFB  FAIR      60  30  32 S12       29.98F
ELLICOTT         N/A    N/A N/A N/A S13G23    29.95F
FALCON         FAIR      61  28  29 S13G23    30.00F
FORT CARSON    NOT AVBL
LIMON          FAIR      66  37  34 S23G30    29.94F
MONUMENT HILL  FAIR      61  30  31 S18       29.99F
TRINIDAD       FAIR      81  18   9 SW23      29.91F
$$

COZ042>045-048>051-090-091-222200-
...NORTHEAST COLORADO...

CITY           SKY/WX    TMP DP  RH WIND       PRES   REMARKS
GREELEY ARPT   FAIR      66  36  32 E6        29.87F
AKRON          FAIR      71  36  27 SE22G29   29.89F
BURLINGTON     FAIR      60  36  40 S25G37    29.97F
WRAY           NOT AVBL
STERLING       FAIR      70  36  28 SE13G18   29.87F
HOLYOKE        FAIR      63  36  36 S24G32    29.93F
FORT MORGAN    FAIR      74  32  21 E6        29.87F
$$

COZ086-089-092>099-222200-
...SOUTHEAST COLORADO...

CITY           SKY/WX    TMP DP  RH WIND       PRES   REMARKS
PUEBLO         FAIR      65  34  31 SE6       29.91F
LA JUNTA       FAIR      72  41  32 E13       29.89F
LAMAR          FAIR      72  40  31 SE20G26   29.91F
SPRINGFIELD      N/A     68  43  40 S25G36    29.97F
$$



USA.gov is the U.S. government's official web portal to all federal, state and local government web resources and services.